• En Estados Unidos
  • Lista de países
  • Para 7 días
  • Temperatura del agua
  • Mapa Satelital
  • El tiempo en el mapa
  • Informadores
  • user-avatar
    Iniciar sesión

    Tiempo cada hora Fier

    Hoy, 20 Junio, Miércoles

    Tiempo Temperatura Precipitaciones Viento Presión Humedad
    00:00 +23°C° 0 mm 2 mps 760 mmHg 76%
    01:00 +21°C° 0 mm 2 mps 760 mmHg 76%
    02:00 +21°C° 0 mm 2 mps 760 mmHg 76%
    03:00 +21°C° 0 mm 2 mps 761 mmHg 75%
    04:00 +21°C° 0 mm 2 mps 761 mmHg 75%
    05:00 +24°C° 0 mm 2 mps 761 mmHg 72%
    06:00 +25°C° 0 mm 2 mps 761 mmHg 68%
    07:00 +27°C° 0 mm 2 mps 761 mmHg 65%
    08:00 +29°C° 0 mm 2 mps 761 mmHg 57%
    09:00 +30°C° 0 mm 2 mps 761 mmHg 50%
    10:00 +32°C° 0 mm 2 mps 761 mmHg 42%
    11:00 +32°C° 0 mm 2 mps 761 mmHg 41%
    12:00 +33°C° 0 mm 3 mps 761 mmHg 40%
    13:00 +34°C° 0 mm 3 mps 761 mmHg 39%
    14:00 +33°C° 0 mm 3 mps 761 mmHg 42%
    15:00 +33°C° 0 mm 3 mps 761 mmHg 46%
    16:00 +31°C° 0 mm 3 mps 761 mmHg 49%
    17:00 +30°C° 0 mm 3 mps 761 mmHg 54%
    18:00 +28°C° 0 mm 3 mps 761 mmHg 60%
    19:00 +27°C° 0 mm 2 mps 761 mmHg 65%
    20:00 +26°C° 0 mm 2 mps 761 mmHg 67%
    21:00 +25°C° 0 mm 2 mps 762 mmHg 69%
    22:00 +24°C° 0 mm 2 mps 762 mmHg 71%
    23:00 +24°C° 0,1 mm 2 mps 762 mmHg 70%

    Mañana, 21 Junio, Jueves

    Tiempo Temperatura Precipitaciones Viento Presión Humedad
    00:00 +24°C° 0,1 mm 2 mps 762 mmHg 70%
    01:00 +23°C° 0,1 mm 2 mps 762 mmHg 70%
    02:00 +23°C° 0 mm 2 mps 761 mmHg 69%
    03:00 +23°C° 0 mm 2 mps 761 mmHg 68%
    04:00 +21°C° 0 mm 2 mps 761 mmHg 67%
    05:00 +24°C° 0 mm 2 mps 761 mmHg 64%
    06:00 +26°C° 0 mm 2 mps 761 mmHg 60%
    07:00 +28°C° 0 mm 1 mps 761 mmHg 56%
    08:00 +29°C° 0 mm 1 mps 761 mmHg 52%
    09:00 +31°C° 0 mm 1 mps 761 mmHg 47%
    10:00 +32°C° 0 mm 1 mps 761 mmHg 42%
    11:00 +32°C° 0 mm 2 mps 760 mmHg 43%
    12:00 +33°C° 0 mm 3 mps 760 mmHg 44%
    13:00 +33°C° 0 mm 4 mps 760 mmHg 45%
    14:00 +33°C° 0,3 mm 4 mps 759 mmHg 48%
    15:00 +32°C° 0,3 mm 4 mps 759 mmHg 51%
    16:00 +32°C° 0,3 mm 4 mps 759 mmHg 55%
    17:00 +29°C° 0,3 mm 3 mps 759 mmHg 61%
    18:00 +28°C° 0,3 mm 2 mps 759 mmHg 68%
    19:00 +26°C° 0,3 mm 1 mps 759 mmHg 75%
    20:00 +25°C° 0,1 mm 1 mps 759 mmHg 76%
    21:00 +25°C° 0,1 mm 1 mps 759 mmHg 76%
    22:00 +24°C° 0,1 mm 1 mps 760 mmHg 76%
    23:00 +24°C° 0 mm 1 mps 759 mmHg 77%

    Pasado mañana, 22 Junio, Viernes

    Tiempo Temperatura Precipitaciones Viento Presión Humedad
    00:00 +23°C° 0 mm 1 mps 759 mmHg 77%
    01:00 +23°C° 0 mm 1 mps 759 mmHg 78%
    02:00 +23°C° 0 mm 1 mps 759 mmHg 78%
    03:00 +21°C° 0 mm 2 mps 759 mmHg 78%
    04:00 +21°C° 0 mm 2 mps 758 mmHg 78%
    05:00 +24°C° 0 mm 2 mps 758 mmHg 73%
    06:00 +25°C° 0 mm 2 mps 758 mmHg 68%
    07:00 +27°C° 0 mm 2 mps 758 mmHg 64%
    08:00 +28°C° 0 mm 2 mps 758 mmHg 59%
    09:00 +29°C° 0 mm 2 mps 758 mmHg 55%
    10:00 +30°C° 0 mm 3 mps 758 mmHg 51%
    11:00 +31°C° 0,1 mm 3 mps 758 mmHg 50%
    12:00 +32°C° 0,1 mm 4 mps 758 mmHg 50%
    13:00 +32°C° 0,1 mm 4 mps 757 mmHg 50%
    14:00 +32°C° 0,1 mm 4 mps 757 mmHg 51%
    15:00 +31°C° 0,1 mm 3 mps 757 mmHg 52%
    16:00 +30°C° 0,1 mm 3 mps 757 mmHg 54%
    17:00 +29°C° 0 mm 3 mps 757 mmHg 60%
    18:00 +27°C° 0 mm 2 mps 757 mmHg 66%
    19:00 +26°C° 0 mm 2 mps 757 mmHg 72%
    20:00 +25°C° 0 mm 2 mps 757 mmHg 74%
    21:00 +24°C° 0 mm 2 mps 758 mmHg 75%
    22:00 +23°C° 0 mm 2 mps 758 mmHg 77%
    23:00 +23°C° 0,1 mm 2 mps 758 mmHg 78%

    23 Junio, Sábado

    Tiempo Temperatura Precipitaciones Viento Presión Humedad
    00:00 +23°C° 0,1 mm 1 mps 758 mmHg 78%
    01:00 +22°C° 0,1 mm 1 mps 758 mmHg 79%
    02:00 +21°C° 0,1 mm 2 mps 758 mmHg 79%
    03:00 +21°C° 0,1 mm 2 mps 758 mmHg 79%
    04:00 +21°C° 0,1 mm 2 mps 758 mmHg 79%
    05:00 +23°C° 0,1 mm 2 mps 758 mmHg 76%
    06:00 +25°C° 0,1 mm 2 mps 758 mmHg 72%
    07:00 +26°C° 0,1 mm 2 mps 759 mmHg 69%
    08:00 +27°C° 0,1 mm 2 mps 759 mmHg 66%
    09:00 +27°C° 0,1 mm 2 mps 759 mmHg 63%
    10:00 +28°C° 0,1 mm 2 mps 759 mmHg 60%
    11:00 +28°C° 0,3 mm 2 mps 759 mmHg 61%
    12:00 +27°C° 0,3 mm 3 mps 759 mmHg 63%
    13:00 +27°C° 0,3 mm 3 mps 759 mmHg 65%
    14:00 +27°C° 0,2 mm 3 mps 759 mmHg 64%
    15:00 +27°C° 0,2 mm 3 mps 759 mmHg 63%
    16:00 +27°C° 0,2 mm 3 mps 759 mmHg 63%
    17:00 +26°C° 0 mm 3 mps 759 mmHg 66%
    18:00 +25°C° 0 mm 3 mps 759 mmHg 70%
    19:00 +24°C° 0 mm 3 mps 759 mmHg 74%
    20:00 +22°C° 0 mm 3 mps 759 mmHg 75%
    21:00 +21°C° 0 mm 4 mps 759 mmHg 76%
    22:00 +21°C° 0 mm 4 mps 760 mmHg 77%
    23:00 +20°C° 0 mm 3 mps 760 mmHg 76%

    24 Junio, Domingo

    Tiempo Temperatura Precipitaciones Viento Presión Humedad
    00:00 +20°C° 0 mm 3 mps 759 mmHg 76%
    01:00 +19°C° 0 mm 3 mps 759 mmHg 75%
    02:00 +19°C° 0 mm 3 mps 759 mmHg 74%
    03:00 +19°C° 0 mm 3 mps 759 mmHg 72%
    04:00 +19°C° 0 mm 3 mps 759 mmHg 71%
    05:00 +20°C° 0 mm 3 mps 759 mmHg 68%
    06:00 +22°C° 0 mm 3 mps 759 mmHg 64%
    07:00 +24°C° 0 mm 3 mps 759 mmHg 61%
    08:00 +26°C° 0 mm 2 mps 759 mmHg 58%
    09:00 +27°C° 0 mm 2 mps 759 mmHg 56%
    10:00 +28°C° 0 mm 2 mps 759 mmHg 53%
    11:00 +29°C° 0,5 mm 2 mps 759 mmHg 53%
    12:00 +30°C° 0,5 mm 2 mps 759 mmHg 52%
    13:00 +30°C° 0,5 mm 2 mps 759 mmHg 52%
    14:00 +30°C° 0,6 mm 2 mps 759 mmHg 53%
    15:00 +30°C° 0,6 mm 2 mps 758 mmHg 54%
    16:00 +29°C° 0,6 mm 2 mps 758 mmHg 55%
    17:00 +28°C° 0,3 mm 2 mps 758 mmHg 61%
    18:00 +26°C° 0,3 mm 2 mps 758 mmHg 66%
    19:00 +25°C° 0,3 mm 2 mps 758 mmHg 72%
    20:00 +24°C° 0,1 mm 2 mps 759 mmHg 74%
    21:00 +23°C° 0,1 mm 2 mps 759 mmHg 75%
    22:00 +23°C° 0,1 mm 2 mps 759 mmHg 77%
    23:00 +21°C° 0,1 mm 2 mps 759 mmHg 78%

    25 Junio, Lunes

    Tiempo Temperatura Precipitaciones Viento Presión Humedad
    00:00 +21°C° 0,1 mm 2 mps 759 mmHg 79%
    01:00 +21°C° 0,1 mm 2 mps 759 mmHg 80%
    02:00 +20°C° 0,3 mm 2 mps 759 mmHg 80%
    03:00 +20°C° 0,3 mm 3 mps 758 mmHg 81%
    04:00 +20°C° 0,3 mm 3 mps 758 mmHg 81%
    05:00 +21°C° 0,8 mm 3 mps 758 mmHg 79%
    06:00 +22°C° 0,8 mm 3 mps 758 mmHg 76%
    07:00 +24°C° 0,8 mm 3 mps 758 mmHg 73%
    08:00 +25°C° 1,6 mm 3 mps 758 mmHg 72%
    09:00 +25°C° 1,6 mm 3 mps 758 mmHg 71%
    10:00 +25°C° 1,6 mm 3 mps 758 mmHg 70%
    11:00 +25°C° 1,9 mm 3 mps 758 mmHg 70%
    12:00 +26°C° 1,9 mm 3 mps 758 mmHg 70%
    13:00 +26°C° 1,9 mm 3 mps 758 mmHg 69%
    14:00 +25°C° 1,3 mm 3 mps 758 mmHg 72%
    15:00 +25°C° 1,3 mm 3 mps 757 mmHg 75%
    16:00 +24°C° 1,3 mm 3 mps 757 mmHg 78%
    17:00 +24°C° 0,6 mm 3 mps 757 mmHg 79%
    18:00 +22°C° 0,6 mm 3 mps 757 mmHg 81%
    19:00 +22°C° 0,6 mm 3 mps 757 mmHg 82%
    20:00 +21°C° 0,7 mm 3 mps 758 mmHg 83%
    21:00 +21°C° 0,7 mm 3 mps 758 mmHg 84%
    22:00 +20°C° 0,7 mm 4 mps 758 mmHg 85%
    23:00 +20°C° 1 mm 3 mps 758 mmHg 86%
    Mostrar más